Probability
0 0 0 0 0 0 0 0 0 0 0 0 0 0 0 0 0 0 0 0 0 0 0 0 0 0 0 0 0 0 0 0 0 0 0 0 0 0 0 0 0 0 0 0 0 0 0 0 0
0 0 0 0 0 0 0 0 0 0 0 0 0 0 0 0 0 0 0 0 0 0 0 0 0 0 0 0 0 0 0 0 0 0 0 0 0 0 0 0 0 0 0 0 0 0 0 0 0
0 0 0 0 0 0 0 0 0 0 0 0 0 0 0 0 0 0 0 0 0 0 0 0 0 0 0 0 0 0 0 0 0 0 0 0 0 0 0 0 0 0 0 0 0 0 0 0 0
0 0 0 0 0 0 0 0 0 0 0 0 0 0 0 0 0 0 0 0 0 0 0 0 0 0 0 0 0 0 0 0 0 0 0 0 0 0 0 0 0 0 0 0 0 0 0 0 0
0 0 0 0 0 0 0 0 0 0 0 0 0 0 0 0 0 0 0 0 0 0 0 0 0 0 0 0 0 0 0 0 0 0 0 0 0 0 0 0 0 0 0 0 0 0 0 0 0
0 0 0 0 0 0 0 0 0 0 0 0 0 0 0 0 0 0 0 0 0 0 0 0 0 0 0 0 0 0 0 0 0 0 0 0 0 0 0 0 0 0 0 0 0 0 0 0 0
0 0 0 0 0 0 0 0 0 0 0 0 0 0 0 0 0 0 0 0 0 0 0 0 0 0 0 0 0 0 0 0 0 0 0 0 0 0 0 0 0 0 0 0 0 0 0 0 0
0 0 0 0 0 0 0 0 0 0 0 0 0 0 0 0 0 0 0 0 0 0 0 0 0 0 0 0 0 0 0 0 0 0 0 0 0 0 0 0 0 0 0 0 0 0 0 0 0
0 0 0 0 0 0 0 0 0 0 0 0 0 0 0 0 0 0 0 0 0 0 0 0 0 0 0 0 0 0 0 0 0 0 0 0 0 0 0 0 0 0 0 0 0 0 0 0 0
0 0 0 0 0 0 0 0 0 0 0 0 0 0 0 0 0 0 0 0 0 0 0 0 0 0 0 0 0 0 0 0 0 0 0 0 0 0 0 0 0 0 0 0 0 0 0 0 0
0 0 0 0 0 0 0 0 0 0 0 0 0 0 0 0 0 0 0 0 0 0 0 0 0 0 0 0 0 0 0 0 0 0 0 0 0 0 0 0 0 0 0 0 0 0 0 0 0
0 0 0 0 0 0 0 0 0 0 0 0 0 0 0 0 0 0 0 0 0 0 0 0 0 0 0 0 0 0 0 0 0 0 0 0 0 0 0 0 0 0 0 0 0 0 0 0 0
0 0 0 0 0 0 0 0 0 0 0 0 0 0 0 0 0 0 0 0 0 0 0 0 0 0 0 0 0 0 0 0 0 0 0 0 0 0 0 0 0 0 0 0 0 0 0 0 0
0 0 0 0 0 0 0 0 0 0 0 0 0 0 0 0 0 0 0 0 0 0 0 0 0 0 0 0 0 0 0 0 0 0 0 0 0 0 0 0 0 0 0 0 0 0 0 0 0
0 0 0 0 0 0 0 0 0 0 0 0 0 0 0 0 0 0 0 0 0 0 0 0 0 0 0 0 0 0 0 0 0 0 0 0 0 0 0 0 0 0 0 0 0 0 0 0 0
0 0 0 0 0 0 0 0 0 0 0 0 0 0 0 0 0 0 0 0 0 0 0 0 0 0 0 0 0 0 0 0 0 0 0 0 0 0 0 0 0 0 0 0 0 0 0 0 0
0 0 0 0 0 0 0 0 0 0 0 0 0 0 0 0 0 0 0 0 0 0 0 0 0 0 0 0 0 0 0 0 0 0 0 0 0 0 0 0 0 0 0 0 0 0 0 0 0
0 0 0 0 0 0 0 0 0 0 0 0 0 0 0 0 0 0 0 0 0 0 0 0 0 0 0 0 0 0 0 0 0 0 0 0 0 0 0 0 0 0 0 0 0 0 0 0 0
0 0 0 0 0 0 0 0 0 0 0 0 0 0 0 0 0 0 0 0 0 0 0 0 0 0 0 0 0 0 0 0 0 0 0 0 0 0 0 0 0 0 0 0 0 0 0 0 0
0 0 0 0 0 0 0 0 0 0 0 0 0 0 0 0 0 0 0 0 0 0 0 0 0 0 0 0 0 0 0 0 0 0 0 0 0 0 0 0 0 0 0 0 0 0 0 0 0
0 0 0 0 0 0 0 0 0 0 0 0 0 0 0 0 0 0 0 0 0 0 0 0 0 0 0 0 0 0 0 0 0 0 0 0 0 0 0 0 0 0 0 0 0 0 0 0 0
0 0 0 0 0 0 0 0 0 0 0 0 0 0 0 0 0 0 0 0 0 0 0 0 0 0 0 0 0 0 0 0 0 0 0 0 0 0 0 0 0 0 0 0 0 0 0 0 0
0 0 0 0 0 0 0 0 0 0 0 0 0 0 0 0 0 0 0 0 0 0 0 0 0 0 0 0 0 0 0 0 0 0 0 0 0 0 0 0 0 0 0 0 0 0 0 0 0
0 0 0 0 0 0 0 0 0 0 0 0 0 0 0 0 0 0 0 0 0 0 0 0 0 0 0 0 0 0 0 0 0 0 0 0 0 0 0 0 0 0 0 0 0 0 0 0 0
0 0 0 0 0 0 0 0 0 0 0 0 0 0 0 0 0 0 0 0 0 0 0 0 0 0 0 0 0 0 0 0 0 0 0 0 0 0 0 0 0 0 0 0 0 0 0 0 0
0 0 0 0 0 0 0 0 0 0 0 0 0 0 0 0 0 0 0 0 0 0 0 0 0 0 0 0 0 0 0 0 0 0 0 0 0 0 0 0 0 0 0 0 0 0 0 0 0
0 0 0 0 0 0 0 0 0 0 0 0 0 0 0 0 0 0 0 0 0 0 0 0 0 0 0 0 0 0 0 0 0 0 0 0 0 0 0 0 0 0 0 0 0 0 0 0 0
0 0 0 0 0 0 0 0 0 0 0 0 0 0 0 0 0 0 0 0 0 0 0 0 0 0 0 0 0 0 0 0 0 0 0 0 0 0 0 0 0 0 0 0 0 0 0 0 0
0 0 0 0 0 0 0 0 0 0 0 0 0 0 0 0 0 0 0 0 0 0 0 0 0 0 0 0 0 0 0 0 0 0 0 0 0 0 0 0 0 0 0 0 0 0 0 0 0
0 0 0 0 0 0 0 0 0 0 0 0 0 0 0 0 0 0 0 0 0 0 0 0 0 0 0 0 0 0 0 0 0 0 0 0 0 0 0 0 0 0 0 0 0 0 0 0 0
Height
5875 5875 5875 5876 5877 5877 5876 5877 5877 5877 5877 5878 5878 5878 5879 5879 5880 5882 5880 5879 5879 5879 5879 5879 5879 5879 5879 5879 5879 5879 5879 5879 5879 5878 5878 5878 5877 5877 5876 5876 5875 5875 5874 5874 5873 5873 5872 5872 5871
5876 5876 5877 5877 5877 5877 5877 5877 5877 5877 5877 5877 5877 5878 5878 5878 5878 5878 5877 5877 5877 5877 5877 5877 5878 5878 5878 5878 5877 5877 5877 5877 5877 5876 5876 5875 5875 5874 5874 5873 5872 5872 5872 5871 5871 5870 5870 5869 5869
5877 5877 5878 5878 5877 5877 5877 5877 5876 5876 5876 5877 5877 5877 5877 5877 5877 5877 5876 5876 5876 5876 5876 5876 5876 5876 5876 5876 5875 5875 5875 5874 5874 5874 5873 5873 5872 5871 5871 5870 5870 5869 5869 5868 5868 5868 5867 5867 5866
5878 5878 5878 5879 5878 5877 5877 5877 5876 5876 5876 5876 5876 5876 5876 5877 5876 5876 5875 5875 5875 5874 5874 5874 5874 5874 5873 5873 5873 5873 5872 5872 5871 5871 5870 5870 5869 5869 5868 5867 5867 5866 5866 5865 5865 5865 5864 5864 5864
5878 5878 5879 5878 5877 5877 5876 5876 5876 5875 5875 5875 5875 5875 5875 5875 5875 5874 5874 5873 5873 5873 5872 5872 5872 5871 5871 5870 5870 5870 5869 5869 5868 5868 5867 5867 5866 5866 5865 5864 5864 5863 5863 5863 5862 5862 5861 5861 5861
5879 5878 5878 5877 5877 5876 5876 5875 5875 5874 5874 5874 5874 5874 5874 5874 5873 5873 5872 5872 5871 5871 5870 5870 5869 5869 5868 5868 5867 5866 5866 5865 5865 5864 5864 5863 5863 5862 5862 5861 5861 5860 5860 5859 5859 5859 5858 5858 5857
5879 5878 5877 5877 5876 5876 5875 5874 5874 5873 5873 5873 5872 5872 5871 5871 5871 5870 5870 5869 5869 5868 5867 5867 5866 5865 5865 5864 5864 5863 5862 5862 5861 5861 5860 5860 5859 5859 5858 5858 5857 5857 5856 5856 5855 5855 5855 5854 5854
5876 5877 5876 5876 5875 5875 5874 5873 5872 5872 5871 5871 5870 5870 5869 5869 5868 5867 5867 5867 5866 5865 5865 5864 5863 5862 5861 5861 5860 5859 5859 5858 5858 5857 5857 5856 5855 5855 5854 5854 5854 5853 5853 5852 5851 5851 5851 5850 5850
5874 5875 5874 5874 5873 5873 5872 5871 5871 5870 5869 5869 5868 5867 5867 5866 5865 5865 5864 5864 5863 5862 5861 5860 5859 5859 5858 5857 5856 5855 5855 5854 5853 5853 5852 5852 5851 5850 5850 5850 5849 5849 5848 5848 5847 5847 5846 5846 5845
5872 5872 5872 5872 5871 5870 5870 5869 5869 5868 5867 5866 5866 5865 5864 5863 5862 5862 5861 5860 5859 5859 5858 5857 5856 5855 5854 5853 5852 5851 5850 5849 5849 5848 5847 5847 5846 5846 5845 5845 5844 5844 5843 5843 5842 5842 5841 5841 5840
5868 5869 5869 5869 5868 5868 5867 5866 5866 5865 5865 5864 5863 5862 5861 5860 5859 5858 5858 5857 5856 5855 5854 5853 5852 5850 5849 5848 5847 5846 5845 5845 5844 5843 5842 5842 5841 5840 5840 5839 5839 5838 5838 5837 5836 5836 5835 5835 5834
5865 5865 5865 5865 5865 5864 5864 5863 5863 5862 5862 5861 5859 5859 5858 5857 5856 5855 5854 5853 5852 5851 5850 5849 5847 5846 5845 5844 5843 5841 5840 5839 5838 5838 5837 5836 5835 5835 5834 5833 5833 5832 5831 5831 5830 5829 5829 5828 5827
5861 5861 5861 5861 5861 5861 5860 5859 5859 5859 5858 5857 5856 5855 5854 5853 5852 5851 5850 5849 5847 5846 5845 5844 5843 5842 5840 5839 5838 5836 5835 5834 5833 5832 5831 5830 5829 5828 5827 5827 5826 5825 5824 5823 5823 5822 5821 5820 5819
5857 5857 5857 5857 5857 5856 5856 5855 5855 5854 5854 5853 5852 5851 5850 5849 5848 5847 5845 5844 5843 5842 5840 5839 5838 5837 5835 5834 5833 5831 5830 5829 5827 5826 5825 5824 5823 5822 5821 5820 5819 5817 5816 5816 5815 5814 5813 5812 5810
5852 5852 5852 5852 5852 5852 5851 5851 5851 5850 5849 5848 5847 5846 5846 5845 5843 5842 5841 5840 5838 5837 5835 5834 5833 5832 5830 5829 5827 5826 5824 5823 5821 5820 5818 5817 5816 5814 5813 5812 5811 5809 5808 5807 5806 5805 5803 5802 5801
5847 5847 5847 5848 5847 5846 5848 5846 5846 5845 5844 5843 5842 5842 5841 5840 5839 5838 5836 5835 5833 5832 5831 5829 5828 5827 5825 5824 5822 5820 5818 5817 5815 5813 5812 5810 5808 5807 5806 5804 5802 5800 5799 5798 5796 5795 5793 5792 5790
5843 5842 5842 5843 5842 5841 5841 5840 5840 5839 5839 5838 5837 5837 5836 5835 5834 5833 5832 5830 5829 5827 5826 5824 5823 5821 5820 5818 5816 5814 5812 5810 5808 5807 5805 5803 5801 5799 5797 5796 5794 5792 5790 5788 5786 5784 5782 5781 5779
5838 5838 5837 5837 5837 5836 5836 5835 5835 5834 5834 5833 5832 5832 5831 5830 5829 5828 5827 5825 5824 5822 5821 5819 5817 5815 5814 5812 5810 5808 5805 5803 5801 5799 5797 5795 5793 5791 5789 5787 5785 5782 5781 5778 5776 5773 5771 5769 5766
5833 5833 5832 5832 5832 5831 5831 5830 5830 5829 5829 5828 5827 5827 5826 5825 5824 5823 5822 5820 5819 5817 5815 5814 5812 5810 5807 5805 5803 5801 5798 5796 5794 5792 5789 5787 5785 5783 5781 5778 5776 5773 5771 5768 5765 5762 5760 5757 5754
5828 5828 5828 5827 5827 5827 5826 5825 5825 5824 5824 5823 5823 5822 5821 5820 5819 5818 5817 5815 5813 5812 5810 5808 5806 5803 5801 5798 5796 5794 5791 5789 5786 5784 5781 5779 5777 5774 5772 5769 5766 5763 5761 5758 5754 5751 5748 5745 5741
5823 5823 5823 5823 5822 5822 5822 5821 5820 5820 5819 5818 5818 5817 5816 5815 5814 5813 5811 5809 5808 5806 5804 5802 5799 5797 5794 5792 5789 5786 5784 5781 5779 5776 5773 5771 5768 5765 5763 5759 5756 5753 5750 5747 5743 5739 5736 5733 5729
5818 5818 5818 5818 5818 5818 5818 5817 5816 5815 5815 5814 5813 5812 5811 5810 5809 5807 5806 5804 5802 5800 5797 5795 5792 5790 5787 5785 5782 5779 5777 5774 5771 5769 5766 5763 5760 5757 5753 5750 5747 5743 5739 5736 5731 5727 5723 5719 5715
5813 5813 5813 5813 5813 5813 5813 5812 5813 5811 5810 5809 5808 5807 5806 5805 5803 5802 5800 5798 5796 5793 5791 5788 5786 5783 5780 5778 5775 5772 5770 5767 5764 5761 5758 5754 5751 5747 5744 5740 5736 5732 5728 5724 5719 5714 5709 5704 5700
5807 5808 5808 5808 5808 5809 5809 5808 5808 5807 5805 5804 5803 5802 5801 5799 5797 5795 5793 5791 5789 5786 5784 5781 5779 5776 5773 5770 5768 5765 5762 5759 5756 5753 5749 5745 5741 5737 5733 5729 5724 5720 5715 5710 5705 5700 5694 5688 5683
5802 5803 5804 5804 5804 5804 5804 5803 5804 5802 5800 5799 5798 5796 5795 5793 5791 5789 5787 5784 5782 5779 5776 5774 5771 5769 5766 5763 5760 5757 5754 5750 5747 5743 5740 5736 5731 5727 5722 5717 5712 5706 5701 5695 5689 5683 5677 5671 5664
5797 5798 5799 5799 5799 5799 5798 5798 5799 5797 5795 5793 5792 5790 5789 5787 5784 5782 5779 5777 5774 5772 5769 5766 5764 5761 5758 5755 5751 5748 5745 5741 5737 5733 5729 5724 5720 5715 5709 5703 5698 5691 5685 5679 5672 5665 5658 5651 5643
5791 5792 5793 5793 5793 5793 5793 5793 5793 5791 5789 5787 5785 5783 5782 5779 5777 5774 5772 5769 5766 5764 5761 5758 5756 5753 5749 5746 5742 5738 5735 5730 5726 5722 5717 5712 5706 5701 5695 5688 5682 5675 5668 5660 5653 5646 5638 5629 5621
5786 5787 5787 5787 5787 5787 5788 5788 5787 5785 5782 5780 5778 5776 5774 5772 5770 5767 5764 5761 5758 5755 5753 5750 5747 5743 5740 5736 5732 5728 5724 5719 5714 5709 5704 5698 5692 5685 5679 5672 5664 5657 5649 5640 5632 5624 5615 5606 5597
5780 5781 5781 5780 5781 5781 5780 5784 5780 5778 5775 5773 5771 5769 5766 5764 5761 5758 5756 5752 5750 5747 5744 5741 5737 5734 5730 5726 5721 5716 5712 5707 5701 5695 5689 5683 5676 5669 5661 5654 5646 5637 5628 5619 5609 5600 5591 5581 5572
5774 5775 5775 5775 5774 5773 5773 5777 5772 5769 5767 5765 5763 5761 5758 5756 5753 5750 5747 5744 5741 5737 5734 5730 5727 5723 5719 5714 5709 5704 5699 5693 5687 5681 5674 5666 5659 5651 5643 5634 5625 5616 5606 5596 5585 5576 5566 5556 5546
Wind_Speed
7 8 8 7 7 6 5 4 4 4 4 5 6 7 8 9 10 11 11 12 13 13 13 13 13 13 13 14 14 14 15 15 15 16 16 16 17 17 18 18 18 18 17 17 17 16 17 17 17
7 7 7 6 6 5 5 4 3 3 3 4 5 6 8 9 10 11 11 12 12 12 13 13 13 13 13 13 13 14 15 15 16 16 16 17 17 18 18 18 18 17 17 17 17 16 16 16 16
6 6 6 5 4 4 4 3 3 3 3 4 4 5 6 8 8 9 10 11 11 12 12 12 13 13 14 14 14 15 15 16 16 16 16 17 17 18 18 18 18 17 17 17 16 16 16 15 15
5 5 4 4 3 2 2 2 3 3 4 4 5 6 7 8 9 10 11 11 12 12 13 13 13 14 15 15 15 16 16 16 17 17 17 17 17 17 17 17 17 17 17 16 16 16 16 16 16
3 3 2 2 1 0 1 2 2 3 4 5 6 7 8 9 10 11 12 12 13 13 14 14 15 15 15 16 16 17 17 17 17 18 18 18 17 18 17 17 17 17 17 17 17 16 16 16 16
1 0 0 0 1 1 2 2 3 4 5 6 8 9 10 10 11 13 14 14 15 15 15 16 16 17 17 17 18 18 18 18 18 19 19 19 18 18 18 18 18 18 18 18 18 17 18 18 18
3 2 2 2 3 3 3 3 4 5 6 7 8 10 11 11 12 13 15 16 16 16 17 18 18 19 19 19 19 19 19 20 20 20 20 20 20 20 20 20 19 19 19 19 19 19 19 19 19
5 5 5 5 5 5 5 5 5 6 6 7 9 11 12 12 13 14 15 16 17 18 19 20 20 21 21 21 21 21 21 21 22 22 22 22 22 22 22 22 21 21 21 21 21 21 21 21 21
8 8 7 7 7 7 7 7 7 8 8 8 9 11 12 13 14 14 15 16 18 19 19 21 22 22 22 22 23 23 23 23 24 24 24 24 24 24 24 24 24 23 23 23 23 23 23 23 23
11 11 10 9 9 9 8 8 8 9 9 9 10 12 13 14 14 15 16 16 17 18 19 21 22 23 23 24 24 24 25 25 25 25 26 26 26 26 26 26 26 26 26 26 26 26 26 26 26
14 13 12 12 11 11 11 11 11 11 11 11 12 13 14 15 15 16 16 17 18 19 20 21 22 23 24 24 25 25 26 26 26 27 27 27 28 28 28 28 29 29 29 29 29 30 30 30 30
16 16 15 14 13 14 14 14 14 14 14 14 15 15 16 16 17 17 18 18 19 20 20 21 22 23 24 25 26 26 27 27 28 28 28 29 29 30 30 31 31 32 32 33 33 33 33 34 35
18 18 18 17 16 16 17 17 17 16 16 17 17 18 18 18 18 19 19 20 20 21 21 21 22 23 24 25 26 27 27 28 29 29 30 30 31 32 32 33 34 35 35 36 36 37 37 38 39
20 20 20 19 18 18 19 19 19 18 18 19 19 20 20 20 20 20 20 20 21 21 21 22 22 23 24 25 26 27 27 28 29 30 30 31 32 33 34 35 35 37 38 39 39 40 41 41 42
20 21 20 20 20 20 20 20 20 20 20 20 20 21 20 20 20 20 20 20 21 21 21 22 22 22 23 24 25 26 27 28 29 30 31 32 33 34 35 35 36 38 39 39 40 41 42 43 45
20 21 21 20 20 20 21 22 20 20 20 21 20 20 20 20 20 19 20 20 20 20 21 21 22 23 23 24 25 26 28 28 29 30 31 33 34 34 35 36 37 38 39 40 41 42 43 44 46
20 21 21 20 20 20 21 22 20 19 20 20 20 20 20 20 20 19 19 20 20 21 21 22 23 24 25 26 27 28 29 30 31 32 33 34 34 35 36 36 38 39 40 41 42 43 44 45 47
20 21 21 21 20 20 21 21 20 19 19 20 20 20 20 20 19 19 20 20 21 22 23 23 24 25 26 27 28 29 30 31 31 32 33 34 34 35 36 36 38 39 40 41 43 44 45 46 48
20 21 21 21 20 20 20 20 19 19 19 19 20 20 20 20 20 20 21 21 22 23 24 25 26 27 28 29 29 30 30 31 32 33 33 34 35 36 37 37 39 40 41 42 44 45 46 47 49
20 20 21 20 20 19 19 19 19 19 19 19 20 20 20 20 21 21 22 23 24 25 26 26 27 28 29 29 30 30 31 32 33 33 34 35 35 36 37 38 40 41 42 43 45 46 48 48 50
20 20 20 20 19 19 19 19 19 19 19 20 20 21 21 21 21 22 23 24 26 27 27 28 29 29 30 30 30 30 31 31 32 32 33 34 35 36 37 39 40 42 43 44 46 48 49 50 52
20 20 20 19 19 18 18 18 18 19 20 20 21 21 21 22 22 23 25 26 27 28 29 29 30 30 30 29 29 29 29 30 31 32 33 34 36 37 39 40 42 43 45 47 49 51 53 55 56
20 20 19 19 19 18 18 19 18 19 20 21 21 22 22 23 24 25 26 28 28 29 30 30 30 30 30 29 29 29 30 31 32 33 34 36 38 39 41 43 45 47 49 51 53 56 58 60 62
20 20 20 19 19 18 18 19 19 19 20 22 22 23 23 24 25 27 28 29 30 30 31 31 31 30 30 30 30 31 32 33 34 35 37 39 41 43 45 47 49 52 54 56 59 61 63 66 68
20 20 20 19 19 19 19 20 20 20 21 22 23 24 24 26 27 29 30 30 31 31 31 31 31 31 31 32 32 33 35 36 37 39 41 43 45 47 50 52 54 57 59 62 64 66 69 71 73
20 20 20 20 20 19 19 20 20 21 22 24 25 25 26 28 29 30 31 32 32 32 32 31 32 32 33 34 35 37 39 40 42 43 45 47 49 52 54 57 59 62 64 67 69 71 74 76 78
20 20 21 21 21 21 21 21 21 22 24 25 26 28 29 30 31 32 32 33 33 32 32 33 34 35 36 37 39 40 42 44 45 47 50 52 54 56 59 61 64 66 69 72 74 76 78 80 82
22 21 21 22 23 23 22 21 22 24 25 27 29 30 31 32 33 33 34 34 34 34 34 35 36 37 38 40 41 43 45 47 49 51 54 56 59 61 64 66 69 71 74 76 78 80 82 83 85
22 22 23 24 25 25 25 23 24 26 27 29 30 32 33 33 34 35 36 36 36 36 37 38 39 40 41 43 45 46 48 51 53 55 58 61 63 66 68 71 73 75 78 80 82 83 85 86 87
24 24 25 26 26 27 28 26 26 28 29 31 32 33 35 36 36 37 38 38 38 38 39 40 41 42 44 46 48 50 52 55 57 60 62 65 68 70 73 75 78 80 82 84 85 87 88 88 88
Wind_Direction
97 101 105 106 111 118 132 152 176 201 222 236 243 247 250 250 251 252 250 249 249 251 252 253 255 256 258 258 259 261 262 263 265 265 265 265 266 266 266 267 266 265 264 262 261 260 260 260 260
98 101 104 110 114 123 135 152 167 185 211 233 245 251 253 253 254 254 252 252 251 252 253 253 254 256 257 259 260 262 264 266 267 267 266 266 267 268 268 268 267 266 264 263 262 261 261 261 260
97 99 107 110 123 133 147 165 178 192 208 225 240 250 255 257 257 256 257 256 255 255 255 255 256 257 259 260 262 265 267 268 268 268 268 268 269 270 270 269 268 266 265 265 263 262 261 261 261
92 98 101 108 122 140 162 186 206 215 224 233 244 252 257 259 260 262 262 261 259 258 258 258 259 261 262 263 265 267 268 269 269 270 270 269 269 270 270 269 267 266 265 264 263 263 263 263 263
99 98 101 102 111 164 220 231 236 239 246 250 257 259 259 260 262 263 262 262 261 261 262 263 263 264 265 266 268 268 268 268 269 270 270 270 269 269 269 268 267 266 265 263 263 264 264 265 266
172 133 88 339 315 302 289 282 271 262 259 258 261 264 264 262 261 261 262 262 263 263 265 265 265 266 266 267 268 268 268 268 268 269 269 270 269 269 268 267 265 265 263 263 263 264 265 266 267
243 258 274 287 290 294 294 291 283 274 265 260 260 263 266 265 263 261 262 263 264 265 265 266 266 266 267 267 268 268 268 268 268 269 269 270 269 268 267 265 264 264 264 263 264 265 266 267 267
254 262 270 280 285 286 286 285 281 276 271 264 261 263 268 269 268 266 265 265 266 265 265 266 267 267 268 268 269 269 269 268 268 269 269 269 268 267 266 264 263 264 264 264 265 265 266 266 267
256 261 267 275 280 281 281 280 279 276 274 270 265 266 270 274 274 273 272 271 269 268 266 265 266 267 269 270 270 271 270 269 269 269 269 268 268 266 265 264 264 264 265 265 265 266 266 266 267
257 262 267 271 274 277 278 278 277 276 276 274 270 270 273 276 278 279 279 277 275 274 271 269 269 269 269 270 270 270 270 270 269 269 269 269 268 267 266 266 265 265 266 266 266 267 267 267 268
259 263 266 268 271 273 275 276 275 276 279 277 275 274 274 276 279 281 281 280 279 278 277 275 273 272 271 271 271 271 270 270 270 270 270 270 269 268 267 267 267 267 267 267 268 268 269 269 270
260 263 266 267 268 270 273 275 276 277 279 278 278 278 278 279 281 282 283 282 281 280 278 277 276 276 275 274 274 273 272 272 272 272 271 271 270 270 269 269 268 268 268 269 269 270 270 270 271
262 265 267 268 268 270 272 274 277 277 276 276 278 279 281 283 284 284 284 284 283 282 280 279 278 277 277 276 275 275 275 274 274 273 272 272 272 272 271 271 271 270 270 270 270 271 271 271 271
265 267 268 269 269 271 273 275 277 278 276 275 276 278 280 281 283 284 285 285 285 284 283 282 280 279 279 278 278 278 277 277 276 275 275 275 274 273 273 273 273 272 272 272 272 272 272 272 272
267 269 269 270 272 273 274 275 276 277 276 276 277 278 280 281 282 283 284 285 286 286 286 285 285 284 284 283 282 282 281 280 279 278 278 277 276 276 276 275 275 274 274 275 274 274 274 274 274
269 271 272 273 274 275 276 276 276 276 276 277 278 279 281 282 283 285 286 287 288 288 289 289 289 288 287 286 285 284 283 282 282 281 280 280 279 279 278 277 277 277 276 276 276 275 275 274 274
270 273 274 274 274 276 276 276 276 276 275 277 279 280 282 284 285 288 289 290 290 290 291 291 291 291 290 290 289 288 286 285 284 284 283 282 282 281 280 280 279 279 279 279 278 277 277 276 276
269 272 274 276 276 276 275 275 276 275 276 278 280 282 285 286 289 290 292 292 292 292 292 292 292 292 292 292 291 290 289 288 287 286 286 285 284 283 283 282 282 281 281 281 280 279 279 278 277
269 271 273 275 276 276 274 274 275 276 277 279 282 284 287 289 291 292 294 294 294 294 294 294 294 294 294 293 292 290 289 289 288 287 287 287 286 285 285 284 284 284 284 284 283 282 281 280 279
267 269 272 274 275 274 272 272 274 276 279 281 284 286 288 290 292 293 294 293 293 294 295 295 295 295 294 293 292 291 290 289 288 288 287 287 287 287 287 287 287 287 287 286 286 285 284 283 282
265 268 272 273 272 271 270 270 273 276 279 281 284 286 287 289 291 292 292 292 293 294 296 296 296 295 295 294 293 292 291 291 291 290 290 290 290 290 290 290 290 290 289 289 288 287 287 286 285
265 268 270 270 269 269 269 269 272 276 279 281 283 285 287 288 290 291 292 292 294 295 296 296 296 295 295 293 292 292 292 292 292 292 292 292 292 292 292 292 292 292 292 291 290 290 289 288 288
263 266 267 267 267 267 267 268 271 275 279 281 282 284 286 289 290 291 291 293 294 295 295 294 294 294 293 291 291 291 291 292 292 292 293 293 293 293 293 294 293 293 293 292 291 291 290 290 289
261 263 264 264 265 265 265 269 273 276 279 280 282 284 287 288 289 291 292 293 294 294 294 293 292 291 290 289 290 290 291 291 292 292 293 293 294 294 294 294 294 294 293 293 292 292 291 290 290
259 261 262 263 263 265 266 269 274 276 278 281 282 285 287 289 290 291 292 293 294 293 292 291 291 290 289 289 289 290 290 291 292 292 293 294 294 295 295 296 295 295 295 294 293 293 292 291 290
256 259 262 265 266 267 268 272 277 279 280 282 284 286 288 290 291 292 293 294 294 292 291 291 290 290 289 289 289 290 290 291 292 293 294 295 296 296 297 297 297 296 296 295 294 294 293 292 291
256 259 263 267 269 270 272 276 278 281 283 284 286 288 289 290 291 292 294 294 292 291 290 290 291 291 291 291 291 291 292 293 294 294 295 296 297 297 298 298 298 297 297 297 296 295 295 293 292
257 260 263 267 272 274 275 278 281 282 284 285 287 288 289 291 291 292 293 293 291 290 290 291 291 291 291 292 292 293 293 294 295 296 297 298 299 299 299 299 299 299 299 298 298 297 296 295 294
257 261 265 269 273 278 280 280 284 284 285 286 287 288 290 291 292 293 293 292 291 291 291 291 292 292 293 293 294 295 296 297 298 299 299 300 301 301 301 301 301 301 301 300 299 298 297 296 295
259 263 267 272 276 279 282 285 286 286 286 287 288 290 291 291 292 293 293 292 292 292 292 292 293 293 294 295 296 297 298 299 300 301 301 302 303 303 303 303 303 303 302 302 301 300 298 297 296